Location: Chamerau
(49.1969°N, 12.7525°E)
Time: 08:17:30
(UTC+00:00)

ERS-1 Rocket - Pass Details

Date: 18 September 2020
Orbit: 753 x 757 km, 98.5° (Epoch: 24 October)

Event Time Altitude Azimuth Distance (km) Brightness Sun altitude
Exits shadow 20:57:24 43° 326° (NW) 1,059 4.0 -32.6°
Drops below altitude 10° 21:00:51 10° 341° (NNW) 2,295 6.2 -33.0°
Sets 21:03:11 0° 344° (NNW) 3,226 7.2 -33.2°
